This demonstration page uses our WeatherBlox Daily Observations layout. Learn more.

Left ArrowRight Arrow

41.86663, -103.66717

Hourly Observations for March 7, 2016

Temp ( °F °C ) Dew Point ( °F °C ) Humidity (%) Winds ( mph kmh ) Pressure ( in mb ) Visibility ( mi km ) Precip ( " mm )
12:53 am 00:53 Mostly Clear 39 3.9 29 -1.7 67 67 ENE 3 6 29.45 997 10 16 N/A
1:53 am 01:53 Clear 38 3.3 28 -2.2 68 68 NE 5 7 29.44 997 10 16 N/A
2:53 am 02:53 Clear 35 1.7 29 -1.7 78 78 NNE 7 11 29.43 997 10 16 N/A
3:53 am 03:53 Clear 31 -0.6 27 -2.8 85 85 N 6 9 29.43 997 10 16 N/A
4:53 am 04:53 Mostly Cloudy 33 0.6 27 -2.8 78 78 NNW 3 6 29.44 997 10 16 N/A
5:53 am 05:53 Cloudy 37 2.8 30 -1.1 76 76 N N/A 29.46 998 10 16 N/A
6:53 am 06:53 Mostly Cloudy 37 2.8 31 -0.6 79 79 N 3 6 29.48 998 10 16 N/A
7:53 am 07:53 Cloudy 40 4.4 32 undefined 73 73 WNW 6 9 29.48 998 10 16 N/A
8:53 am 08:53 Cloudy 50 10 34 1.1 54 54 WNW 10 17 29.46 998 10 16 N/A
9:53 am 09:53 Mostly Cloudy 54 12.2 34 1.1 47 47 WNW 13 20 29.45 997 10 16 N/A
10:53 am 10:53 Sunny 60 15.6 35 1.7 39 39 NW 15 24 29.40 996 10 16 N/A
11:53 am 11:53 Mostly Cloudy 64 17.8 33 0.6 32 32 NNW 13 20 29.38 995 10 16 N/A
12:53 pm 12:53 Mostly Cloudy 62 16.7 33 0.6 34 34 NNW 18 30 29.38 995 10 16 N/A
1:40 pm 13:40 Cloudy with Light Rain 54 12 41 5 63 63 VRB 3 6 29.38 995 5 8 N/A
1:53 pm 13:53 Cloudy with Light Rain 55 12.8 42 5.6 62 62 N 10 17 29.40 996 10 16 0.02 0.51
2:11 pm 14:11 Partly Cloudy with Thunderstorms 58 14.4 42 5.6 56 56 NNW 12 19 29.35 994 10 16 N/A
2:26 pm 14:26 Mostly Cloudy with Nearby Thunderstorms 54 12 43 6 67 67 NW 14 22 29.38 995 10 16 N/A
2:39 pm 14:39 Mostly Cloudy with Light Rain 52 11.1 42 5.6 69 69 WNW 16 26 29.38 995 10 16 N/A
2:53 pm 14:53 Cloudy with Nearby Thunderstorms 51 10.6 43 6.1 74 74 WNW 17 28 29.42 996 10 16 N/A
3:26 pm 15:26 Cloudy with Nearby Thunderstorms 52 11 39 4 62 62 NW 22 35 29.38 995 10 16 N/A
3:53 pm 15:53 Cloudy with Nearby Thunderstorms 49 9.4 41 5 74 74 NW 20 31 29.44 997 10 16 N/A
4:06 pm 16:06 Cloudy with Light Rain 48 9 41 5 76 76 NW 25 41 29.41 996 10 16 N/A
4:13 pm 16:13 Cloudy with Nearby Thunderstorms 47 8.3 41 5 80 80 WNW 24 39 29.44 997 8 13 N/A
4:53 pm 16:53 Cloudy with Nearby Thunderstorms 45 7.2 41 5 86 86 WSW 15 24 29.52 1000 7 11 0.07 1.78
5:11 pm 17:11 Cloudy with Heavy Rain 43 6.1 40 4.4 89 89 W 21 33 29.53 1000 3 5 0.09 2.29
5:23 pm 17:23 Cloudy with Heavy Rain 41 5 40 4.4 96 96 W 22 35 29.56 1001 2 3 0.22 5.59
5:44 pm 17:44 Cloudy with Rain 39 4 39 4 100 100 W 22 35 29.56 1001 3 5 N/A
5:53 pm 17:53 Cloudy with Heavy Rain 40 4.4 39 3.9 97 97 W 22 35 29.55 1001 3 5 0.40 10.16
6:53 pm 18:53 Cloudy with Heavy Rain 41 5 38 3.3 89 89 NNW 21 33 29.58 1002 3 5 0.38 9.65
7:53 pm 19:53 Cloudy with Rain 37 3 N/A N/A NW 18 30 29.62 1003 5 8 0.26 6.60
8:13 pm 20:13 Cloudy with Rain 37 3 N/A N/A NW 14 22 29.68 1005 6 10 0.06 1.52
8:51 pm 20:51 Cloudy with Rain 37 3 N/A N/A WNW 20 31 29.71 1006 6 10 0.13 3.30
8:53 pm 20:53 Cloudy with Rain 37 3 N/A N/A WNW 21 33 29.63 1003 6 10 0.13 3.30
9:23 pm 21:23 Cloudy with Light Snow 34 1 N/A N/A WNW 17 28 29.74 1007 4 6 0.07 1.78
9:36 pm 21:36 Cloudy with Light Snow 34 1 N/A N/A WNW 14 22 29.80 1009 3 4 0.10 2.54
9:49 pm 21:49 Cloudy with Light Snow 34 1 N/A N/A WNW 13 20 29.80 1009 3 5 0.11 2.79
9:53 pm 21:53 Cloudy with Light Snow 34 1 N/A N/A WNW 13 20 29.66 1005 3 5 0.12 3.05
10:00 pm 22:00 Cloudy with Light Snow 34 1 N/A N/A WNW 14 22 29.80 1009 3 4 N/A
10:13 pm 22:13 Cloudy with Light Snow 34 1 N/A N/A WNW 12 19 29.80 1009 2 3 0.03 0.76
10:27 pm 22:27 Cloudy with Light Snow 34 1 N/A N/A WNW 12 19 29.80 1009 3 5 0.05 1.27
10:34 pm 22:34 Cloudy with Light Snow 34 1 N/A N/A WNW 12 19 29.80 1009 3 5 N/A
10:42 pm 22:42 Cloudy with Light Snow 34 1 N/A N/A WNW 13 20 29.80 1009 3 5 N/A
10:51 pm 22:51 Cloudy with Light Snow 34 1 N/A N/A WNW 10 17 29.80 1009 2 3 0.07 1.78
10:52 pm 22:52 Cloudy with Light Snow 34 1 N/A N/A WNW 10 17 29.67 1005 2 3 0.07 1.78
11:20 pm 23:20 Cloudy with Light Snow 34 1 N/A N/A WNW 13 20 29.80 1009 3 4 N/A
11:27 pm 23:27 Cloudy with Light Snow 34 1 N/A N/A WNW 12 19 29.80 1009 3 5 0.03 0.76
11:37 pm 23:37 Cloudy with Light Snow 34 1 N/A N/A WNW 13 20 29.80 1009 4 6 0.03 0.76
11:53 pm 23:53 Cloudy with Light Snow 34 1 N/A N/A WNW 14 22 29.68 1005 3 5 0.04 1.02

Powered by AerisWeather